This is the latest recevied weather packets stored in our database for station/object W0AVQ. If no packets are shown the sender has not sent any weather packets the latest 1 day(s).
| Time | Temp. | Humidity | Pressure | Rain* | Wind** | Luminosity | Snow |
|---|---|---|---|---|---|---|---|
| 1778013580 | 13.33° C | 99% | 1009.4 hPa | 3.05 mm | 0.45 m/s, 312° | 32 W/m² | - |
| 1778013277 | 13.89° C | 99% | 1009.4 hPa | 3.05 mm | 0 m/s | 31 W/m² | - |
| 1778012973 | 13.89° C | 99% | 1009.4 hPa | 3.05 mm | 0.89 m/s, 299° | 40 W/m² | - |
| 1778012669 | 13.89° C | 99% | 1009.2 hPa | 3.05 mm | 0 m/s | 34 W/m² | - |
| 1778012366 | 13.89° C | 99% | 1009.1 hPa | 3.05 mm | 0.45 m/s, 278° | 39 W/m² | - |
| 1778012063 | 14.44° C | 99% | 1009.2 hPa | 3.05 mm | 0.45 m/s, 304° | 42 W/m² | - |
| 1778011761 | 14.44° C | 99% | 1009.1 hPa | 3.05 mm | 0 m/s | 63 W/m² | - |
| 1778011458 | 14.44° C | 99% | 1009.1 hPa | 3.05 mm | 0 m/s | 53 W/m² | - |
| 1778011153 | 15° C | 99% | 1009 hPa | 4.83 mm | 0 m/s | 52 W/m² | - |
| 1778010851 | 14.44° C | 99% | 1009.1 hPa | 3.56 mm | 0 m/s | 59 W/m² | - |
| 1778010548 | 15° C | 99% | 1008.9 hPa | 3.05 mm | 0 m/s | 55 W/m² | - |
| 1778010246 | 15.56° C | 99% | 1008.8 hPa | 4.32 mm | 0 m/s | 52 W/m² | - |
| 1778009946 | 16.11° C | 99% | 1008.8 hPa | 4.32 mm | 0.45 m/s, 297° | 46 W/m² | - |
| 1778009644 | 16.11° C | 99% | 1008.7 hPa | 4.83 mm | 0.89 m/s, 289° | 29 W/m² | - |
| 1778009341 | 16.67° C | 99% | 1009.1 hPa | 1.78 mm | 0.89 m/s, 313° | 29 W/m² | - |
| 1778009039 | 17.22° C | 99% | 1008.8 hPa | 0 mm | 0.45 m/s, 289° | 23 W/m² | - |
| 1778008736 | 17.22° C | 99% | 1008.8 hPa | 0 mm | 0 m/s | 38 W/m² | - |
| 1778008435 | 17.22° C | 99% | 1009 hPa | 0 mm | 0 m/s | 42 W/m² | - |
| 1778008131 | 17.22° C | 99% | 1009 hPa | 0 mm | 0 m/s | 37 W/m² | - |
| 1778007827 | 16.67° C | 99% | 1009.1 hPa | 0 mm | 0 m/s | 32 W/m² | - |
| 1778007523 | 16.67° C | 99% | 1009.3 hPa | 0 mm | 0 m/s | 48 W/m² | - |
| 1778007219 | 16.67° C | 99% | 1008.8 hPa | 1.27 mm | 0.45 m/s, 159° | 48 W/m² | - |
| 1778006916 | 16.67° C | 99% | 1008.9 hPa | 1.27 mm | 0 m/s | 42 W/m² | - |
| 1778006613 | 16.67° C | 99% | 1009.2 hPa | 0 mm | 0 m/s | 29 W/m² | - |
| 1778006310 | 16.67° C | 99% | 1009.4 hPa | 1.78 mm | 0 m/s | 47 W/m² | - |
* Rain latest hour (hover to see other rain measurements)
** Current wind speed in m/s (hover to see current wind gust speed)